Location: Pinon Hills
(34.4429°N, 117.6403°W)
Time: 23:59:38
(UTC-07:00)

Uosat F - Visible Passes

Search period start: 26 September 2016 00:00
Search period end: 06 October 2016 00:00
Orbit: 750 x 761 km, 98.8° (Epoch: 26 September)

Date Brightness Start Highest point End Pass type
(mag) Time Alt. Az. Time Alt. Az. Time Alt. Az.
26 Sep 13.7 19:09:47 10° SSW 19:13:53 25° W 19:18:01 10° NW visible
27 Sep 14.6 05:44:00 10° ENE 05:45:45 12° E 05:47:31 10° ESE visible
28 Sep 14.2 19:30:54 10° SW 19:33:54 16° W 19:36:57 10° NW visible
29 Sep 14.1 06:02:13 10° NE 06:05:49 19° E 06:09:23 10° SE visible
01 Oct 13.4 06:21:23 10° NE 06:25:50 31° E 06:30:15 10° SSE visible
01 Oct 13.6 19:10:05 10° SSW 19:14:12 26° W 19:18:22 10° NW visible
02 Oct 14.6 05:44:23 10° ENE 05:46:05 12° E 05:47:47 10° ESE visible
03 Oct 14.2 19:31:11 10° SW 19:34:14 16° W 19:37:19 10° NW visible
04 Oct 14.2 06:02:35 10° NE 06:06:09 19° E 06:09:42 10° SE visible
04 Oct 12.6 18:49:52 10° S 18:54:34 42° W 18:59:19 10° NNW visible
